Informationen zur Loipe auf der Atzenberger Höhe
 
19.01.2019Höhe
ü. NN
ZeitTemperatur (°C)Nieder-
schlag
Luft-
feuchte
Luft-
druck
Wind
StationaktuellMinimumMaximumaktuellMaximum
Aldingen654 m22:26-6,1-10,0 (05:59)-2,0 (14:43)0,0 l/m²92%1016,35,6 km/h (2 Bft) SO14,8 km/h (3 Bft) S-SO (13:07)
Allmannsweiler625 m22:25-9,7-9,7 (22:20)-2,8 (15:25)0,0 l/m²93%1015,60,0 km/h (0 Bft) SO12,9 km/h (3 Bft) SW (13:50)
Allmendingen541 m22:25-9,0-10,2 (07:25)-3,4 (00:35)0,0 l/m²90%1015,90,0 km/h (0 Bft) S-SW16,1 km/h (3 Bft) SO (09:05)
Altshausen574 m22:25-8,4-8,4 (22:14)-2,3 (14:44)0,0 l/m²88%1011,60,0 km/h (0 Bft) W-SW11,3 km/h (2 Bft) N-NO (00:05)
Amstetten-Reutti663 m22:25-7,3-8,0 (06:10)-4,1 (14:40)0,0 l/m²94%1015,50,0 km/h (0 Bft) S-SO27,4 km/h (4 Bft) O (09:45)
Amtzell-Grenis677 m22:25-8,3-8,4 (22:15)-2,1 (14:15)0,0 l/m²88%1016,96,4 km/h (2 Bft) N-NO16,1 km/h (3 Bft) O-SO (00:00)
Aulendorf570 m22:25-8,2-8,2 (22:17)-2,5 (15:13)0,0 l/m²86%1015,00,0 km/h (0 Bft) S-SW14,5 km/h (3 Bft) NO (00:34)
Bad Krozingen233 m22:25-3,7-5,7 (08:50)0,4 (15:35)0,0 l/m²92%1015,30,0 km/h (0 Bft) O6,6 km/h (2 Bft) W-NW (13:25)
Bad Saulgau595 m22:25-7,9-7,9 (22:20)-1,9 (15:15)0,0 l/m²90%1014,41,6 km/h (1 Bft) W-NW12,9 km/h (3 Bft) W (07:00)
Bad Saulgau-Lampertsweiler627 m22:25-7,6-7,6 (22:25)-2,8 (00:00)0,0 l/m²88%1017,80,0 km/h (0 Bft) O-SO14,5 km/h (3 Bft) S-SO (10:50)
Bad Schussenried572 m22:25-6,9-7,1 (20:40)-2,6 (15:10)0,0 l/m²90%1013,80,0 km/h (0 Bft) SW11,3 km/h (2 Bft) O-NO (00:15)
Bergatreute615 m22:25-10,2-10,6 (22:10)-2,0 (14:20)0,0 l/m²94%1015,94,8 km/h (1 Bft) N12,9 km/h (3 Bft) O-NO (00:00)
Biberach (Riss), Boehringer533 m22:20-7,9-8,2 (22:00)-2,9 (00:00)0,0 l/m²94%1013,90,7 km/h (0 Bft) W-NW16,6 km/h (3 Bft) S (13:50)
Biberach (Riss), Realschule553 m22:25-9,2-9,2 (22:05)-3,2 (00:00)0,0 l/m²92%1016,80,0 km/h (0 Bft) O-SO16,1 km/h (3 Bft) W-SW (12:55)
Bodnegg-Rotheidlen677 m22:25-8,0-8,1 (06:20)-2,7 (14:25)0,0 l/m²93%1015,70,0 km/h (0 Bft) W-NW14,5 km/h (3 Bft) O (00:00)
Burgrieden523 m22:25-7,4-7,4 (22:25)-3,2 (00:00)0,0 l/m²87%1015,60,0 km/h (0 Bft) S12,9 km/h (3 Bft) S (17:35)
Burgrieden-Hochstetten510 m22:25-7,8-7,8 (22:20)-2,8 (23:00)0,0 l/m²91%1015,73,2 km/h (1 Bft) SO14,5 km/h (3 Bft) SO (08:15)
Donauwörth411 m22:25-6,6-6,6 (22:25)-0,8 (15:05)0,0 l/m²91%1015,90,0 km/h (0 Bft) O-SO22,5 km/h (4 Bft) O (10:45)
Ebersbach579 m22:25-8,7-8,8 (22:25)-2,6 (00:00)0,0 l/m²93%1016,40,0 km/h (0 Bft) O17,7 km/h (3 Bft) O-NO (00:00)
Ebersbach-Boos605 m22:25-9,1-9,1 (22:25)-2,5 (15:15)0,0 l/m²93%1016,30,0 km/h (0 Bft) O-SO22,5 km/h (4 Bft) O (00:05)
Ebersbach-Menzenweiler661 m22:25-6,9-6,9 (21:55)-3,1 (15:05)0,0 l/m²95%1016,16,4 km/h (2 Bft) O-NO29,0 km/h (5 Bft) O-NO (00:00)
Ehingen535 m22:25-8,5-8,5 (22:25)-3,7 (00:50)0,0 l/m²87%1015,80,0 km/h (0 Bft) W-SW12,8 km/h (3 Bft) W-SW (08:50)
Erlenmoos645 m22:25-9,2-9,2 (22:20)-2,6 (15:15)0,0 l/m²85%1015,80,0 km/h (0 Bft) O-NO0,0 km/h (0 Bft) W (00:00)
Ertingen569 m22:30-7,4-7,4 (22:25)-2,8 (15:20)0,0 l/m²90%1015,30,0 km/h (0 Bft) O-SO12,9 km/h (3 Bft) N-NO (07:10)
Friedrichshafen405 m22:25-5,2-5,2 (22:25)2,1 (15:25)0,0 l/m²88%1015,88,0 km/h (2 Bft) N-NO12,9 km/h (3 Bft) O (23:10)
Günzburg443 m22:25-7,0-7,1 (21:20)-2,2 (15:09)0,0 l/m²89%1013,20,0 km/h (0 Bft) W14,5 km/h (3 Bft) O-SO (09:25)
Höchsten802 m22:25-6,0-7,7 (08:35)-4,1 (14:50)0,0 l/m²93%1013,50,0 km/h (0 Bft) SO38,6 km/h (5 Bft) N-NO (00:35)
Horgenzell618 m22:25-5,1-5,2 (03:50)-3,7 (00:00)0,0 l/m²90%1013,48,0 km/h (2 Bft) O-NO19,3 km/h (3 Bft) NO (00:25)
Hoßkirch632 m22:25-8,8-8,8 (22:20)-2,7 (14:25)0,0 l/m²92%1014,70,0 km/h (0 Bft) SW20,9 km/h (4 Bft) O-NO (00:35)
Isny, Am Dreifingerbach695 m22:25-9,9-11,4 (06:00)-2,3 (15:05)0,0 l/m²90%1015,88,0 km/h (2 Bft) O8,0 km/h (2 Bft) O (22:25)
Isny, Weidachweg706 m22:25-11,0-11,7 (08:20)-1,3 (14:10)0,0 l/m²89%1017,33,2 km/h (1 Bft) O11,3 km/h (2 Bft) SW (02:20)
Kappel-Grafenhausen163 m22:20-3,4-4,9 (08:20)2,4 (14:45)0,0 l/m²90%1013,10,0 km/h (0 Bft) N6,4 km/h (2 Bft) N-NO (10:25)
Kirchberg an der Iller584 m22:25-8,2-8,3 (22:15)-3,2 (23:00)0,0 l/m²88%1005,40,0 km/h (0 Bft) SO8,0 km/h (2 Bft) S-SW (01:55)
Kißlegg-Staibshof709 m22:25-7,1-7,2 (08:10)-1,4 (15:20)0,0 l/m²96%1015,50,0 km/h (0 Bft) N-NO11,3 km/h (2 Bft) O-NO (00:00)
Kressbronn398 m22:28-4,9-5,1 (07:56)-0,4 (14:52)0,0 l/m²84%1014,50,0 km/h (0 Bft) NO12,9 km/h (3 Bft) NO (01:08)
Kreuzthal-Steinberg-Alpe930 m22:10-6,1-10,0 (08:00)2,6 (12:50)0,0 l/m²100%1015,00,4 km/h (0 Bft) O13,7 km/h (3 Bft) W-NW (00:00)
Kreuzthal-Steinberggipfel1040 m22:20-3,6-8,9 (07:50)0,1 (14:10)-84%1015,011,9 km/h (3 Bft) SW22,7 km/h (4 Bft) O-SO (00:40)
Kristberg im Montafon (AT)1425 m22:25-8,2-9,5 (05:20)3,1 (12:15)0,0 l/m²70%1015,33,2 km/h (1 Bft) N12,9 km/h (3 Bft) N (09:00)
Laupheim500 m22:25-7,4-7,4 (22:20)-3,2 (00:00)0,0 l/m²90%1015,14,8 km/h (1 Bft) SW14,5 km/h (3 Bft) S-SW (12:20)
Lindau-Insel420 m22:25-4,9-6,2 (08:30)1,4 (14:45)0,0 l/m²85%1014,93,2 km/h (1 Bft) N11,3 km/h (2 Bft) W (13:55)
Lindau-Stadt412 m22:25-5,5-6,8 (07:45)-0,4 (11:50)0,0 l/m²86%1015,24,8 km/h (1 Bft) NO9,7 km/h (2 Bft) N (01:10)
Maierhöfen im Allgäu733 m22:30-14,3-15,2 (08:10)1,6 (13:30)0,0 l/m²88%1017,00,0 km/h (0 Bft) SW4,8 km/h (1 Bft) O (01:45)
Maselheim-Sulmingen548 m22:25-8,9-8,9 (22:25)-3,7 (23:00)0,0 l/m²92%1017,23,2 km/h (1 Bft) O-SO12,9 km/h (3 Bft) O (23:05)
Mietingen-Baltringen528 m22:25-8,3-8,3 (22:25)-3,3 (00:00)0,0 l/m²88%1017,63,2 km/h (1 Bft) W12,9 km/h (3 Bft) SO (08:20)
Mindelheim-Apfeltrach620 m22:26-13,3-13,3 (22:19)-2,3 (14:59)0,2 l/m²88%1017,00,0 km/h (0 Bft) S6,4 km/h (2 Bft) NO (06:59)
Neresheim552 m22:00-6,1-6,1 (22:00)-3,8 (15:33)0,0 l/m²92%1012,20,0 km/h (0 Bft) S15,1 km/h (3 Bft) O-SO (09:22)
Neukirch570 m22:25-7,3-7,4 (07:10)-0,8 (13:00)0,0 l/m²92%1015,96,4 km/h (2 Bft) NO9,7 km/h (2 Bft) NO (23:30)
Ochsenhausen, Birkenstraße613 m22:25-10,7-10,7 (22:05)-3,5 (14:15)0,0 l/m²84%1016,43,2 km/h (1 Bft) O11,3 km/h (2 Bft) O-NO (08:05)
Ochsenhausen, Unt. Wiesen575 m22:25-10,6-10,6 (22:00)-3,7 (00:00)0,0 l/m²91%1017,39,7 km/h (2 Bft) S14,5 km/h (3 Bft) S-SO (08:05)
Ostrach619 m22:25-8,8-8,8 (22:15)-1,3 (14:40)0,0 l/m²92%1014,10,0 km/h (0 Bft) S-SO17,7 km/h (3 Bft) N-NO (23:00)
Ravensburg428 m22:25-6,1-6,1 (22:25)-0,4 (15:10)0,0 l/m²90%1015,08,0 km/h (2 Bft) N16,1 km/h (3 Bft) N-NO (01:45)
Ravensburg-Wernsreute511 m22:25-7,0-7,1 (22:25)-1,7 (15:25)0,0 l/m²91%1017,88,0 km/h (2 Bft) N22,5 km/h (4 Bft) N-NO (23:30)
Reichenbach an der Fils343 m22:25-5,9-5,9 (22:25)-1,8 (11:20)0,0 l/m²84%1017,314,5 km/h (3 Bft) SO24,1 km/h (4 Bft) O (20:10)
Reinstetten559 m22:25-10,8-10,8 (22:15)-3,2 (00:00)0,0 l/m²91%1016,34,8 km/h (1 Bft) S-SW17,7 km/h (3 Bft) SO (09:35)
Riedlingen530 m22:25-7,7-7,7 (22:20)-3,2 (15:25)0,0 l/m²91%1015,60,0 km/h (0 Bft) O-NO12,9 km/h (3 Bft) O-NO (00:45)
Schemmerhofen520 m22:25-8,7-8,7 (22:20)-3,0 (00:00)0,0 l/m²91%1015,40,0 km/h (0 Bft) SW12,9 km/h (3 Bft) N-NO (04:00)
Silbertal im Montafon (AT)884 m22:25-7,8-9,2 (06:40)-4,6 (14:50)0,0 l/m²90%1017,60,0 km/h (0 Bft) SO3,2 km/h (1 Bft) S-SO (02:00)
Tettnang466 m22:25-5,3-5,9 (07:35)-0,5 (14:55)0,0 l/m²86%1014,09,7 km/h (2 Bft) NO14,5 km/h (3 Bft) O (01:05)
Tuttlingen662 m22:25-7,1-9,6 (05:10)-3,9 (14:35)0,0 l/m²89%1015,61,6 km/h (1 Bft) O-SO11,3 km/h (2 Bft) O-SO (14:40)
Ummendorf547 m22:25-9,9-9,9 (22:00)-3,4 (01:30)0,0 l/m²89%1016,84,8 km/h (1 Bft) S-SO16,1 km/h (3 Bft) SW (13:05)
Ummendorf-Fischbach558 m22:25-10,9-10,9 (22:25)-3,9 (01:25)0,0 l/m²89%1017,30,0 km/h (0 Bft) S-SO14,5 km/h (3 Bft) O-NO (01:35)
Waldburg707 m22:25-7,8-7,8 (22:25)-3,2 (13:05)0,0 l/m²92%1015,30,0 km/h (0 Bft) N14,5 km/h (3 Bft) N (00:15)
Waltenhofen im Allgäu720 m22:25-13,2-13,7 (07:35)-0,8 (13:35)0,2 l/m²89%1016,40,0 km/h (0 Bft) S-SW4,8 km/h (1 Bft) S-SW (11:55)
Weingarten500 m22:25-8,0-8,0 (22:25)-1,5 (14:25)0,0 l/m²89%1015,50,0 km/h (0 Bft) O-NO8,0 km/h (2 Bft) O-NO (00:55)
Winterlingen785 m22:00-6,8-10,0 (07:00)-3,9 (16:00)0,0 l/m²96%1013,65,8 km/h (2 Bft) S7,2 km/h (2 Bft) S-SO (10:40)

niederschlagsdatenbank | info | login - erfassung

Sollten Sie Interesse haben, an der Niederschlagsdatenbank teilzunehmen, finden Sie > hier < weitere Informationen.
Datum: . . Kalender
Anmerkung:0,0 = nicht messbarer Niederschlag
 -  = kein Niederschlag
 k  = kumulierter Niederschlag

< 04.01.201906.01.2019 >


Niederschlagswerte vom 05.01.2019    -    derzeit 103 Stationen

Die Niederschlagswerte des gewählten Tages lassen sich durch Klicken auf das Datum sortieren.
Die Angaben sind in l/m².

Station02.01.03.01.04.01.05.01.06.01.07.01.08.01.Bemerkung 05.01.
Aichstetten-Nestbaum-------
Albbruck 0,20,00,53,80,03,813,0
Am Morgen Schneefall, ca. 6 cm später in Schneeregen und in Regen üb [weiterlesen...]
Regen Schneeregen Schnee
Schneehöhe: angezuckert
Allmendingen-1,5-13,7-4,711,3
Regen Schneeregen Schnee
Amstetten-Reutti-0,6-30,8 k2,02,214,6
Regen Nieselregen Schneeregen Schnee
Aulendorf2,01,03,615,28,02,22,9
Schnee Graupel
Schneehöhe: 6 cm
Aulendorf-Blönried-3,01,0-22,52,13,3
Aulendorf-Zollenreute-5,1-19,5 k6,03,0-
Schneeregen Schnee
Schneehöhe: 8cm
Bad Buchau---13,0 k5,03,06,0
Kumuliert
Regen Schneeregen Schnee Graupel
Bad Saulgau Walserweg0,01,01,06,52,52,55,0
Nassschnee
Schneeregen Schnee
Schneehöhe: 0,5
Bad Saulgau-Hochberg-------
Bad Schussenried Konradstraße0,70,4-13,23,93,03,2
Nieselregen Schneeregen Schnee Schneegriesel
Bad Schussenried Lortzingstrasse1,00,0-12,54,03,04,0
Schneeregen Schnee
Bad Schussenried Klosterstraße1,00,8-15,05,03,25,0
Schnee
Bad Schussenried Theodor-Storm-Strasse1,9--13,34,94,03,8
Schneeregen Schnee
Bad Schussenried-Hopferbach1,20,5-17,0 k3,54,04,0
Schnee
Bad Schussenried-Schwaigfurt1,01,0-21,05,53,53,0
Bad Waldsee-Haisterkirch1,01,03,528,05,04,03,5
-2/+0,7°C, seit der Früh kräftiger Schneefall, zum Abend und in der [weiterlesen...]
Schneeregen Schnee
Schneehöhe: 4 cm
Bad Wurzach-Dietmanns-------
Bad Wurzach-Seibranz1,51,23,010,510,05,53,0
Schnee
Schneehöhe: 5 cm
Baienfurt-1,00,516,016,08,06,0
Schneeregen Schnee
Schneehöhe: 1 cm
Balzheim0,50,31,511,02,51,56,0
Schneeregen Schnee
Schneehöhe: 1 cm
Berg-Kleintobel0,90,80,423,012,17,12,9
Schneeregen Schnee
Schneehöhe: 1 cm
Biberach Amriswilstrasse0,51,01,213,03,23,45,3
Schnee
Schneehöhe: 1 cm
Biberach Strölinweg------30,0
Biberach Erlenweg-------
Biberach Neue Heimat 5-------
Biberach Mittelbergstraße 90,50,80,712,53,53,05,0
Schnee
Schneehöhe: 1 cm
Biberach-Bergerhausen0,01,01,513,03,0-9,0
Schnee
Bierstetten---21,04,54,04,2
Wert gesammelt v. 29.12.18 bis einschl. 05.01.19
Blaubeuren-Pappelau---15,0 k10,0--
War eingefrohren
Regen Schneeregen Schnee
Bühlertal----20,010,010,0
Dettingen a. d. Iller-------
Dornstadt-Tomerdingen1,6-0,617,30,86,17,5
Dürnau1,00,51,06,53,03,5-
Schnee
Eberhardzell Lilienweg1,11,13,024,44,75,42,4
Schnee
Schneehöhe: 3 cm
Ebersbach-Roßwälden-0,71,428,212,01,42,1
Schneehöhe: 4 cm
Ehingen Rosenstraße0,90,90,89,00,33,18,5
Regen Nieselregen Schneeregen Schnee
Schneehöhe: 3 cm
Ehingen Zanderstraße0,21,20,98,5-2,16,8
Schnee
Ehingen Schlaufenbühl0,02,60,36,82,10,310,0
Schnee
Schneehöhe: Reste
Ehingen Schillerstraße0,01,1-9,90,03,48,4
in der Nach sind ca. 4 cm Schnee geschmolzen, der Schneefall am Samsta [weiterlesen...]
Schnee
Ehingen-Herbertshofen-------
Eislingen0,20,63,229,211,64,57,5
Regen Nieselregen Schneeregen Eiskörner
Schneehöhe: 1 cm
Erbach-Bach0,21,0-7,00,56,07,5
Schnee
Erlenmoos0,81,61,817,43,21,15,1
Schnee
Schneehöhe: 5 cm
Füramoos1,40,0-0,00,76,92,1
Schneehöhe am 05.01.2019 30 cm
Gutenzell-4,0-18,01,5-6,0
Gutenzell-Hürbel1,01,01,013,52,53,06,0
Schnee
Herbertingen Drosselweg0,80,20,37,01,21,37,5
Bei böigem Wind bis zum Abend Schneefall. Danach bei steigenden Tempe [weiterlesen...]
Nieselregen Schneeregen Schnee
Schneehöhe: noch überzuckert
Herbertingen Hirschstrasse-1,01,55,01,5-7,0
Schneeregen Schnee
Schneehöhe: 1,0cm
Hochdorf-Schweinhausen4,1--26,2 k4,8--
Hohentengen-Bremen-0,51,010,01,51,55,5
Schnee
Horgenzell-Ringgenweiler1,30,91,112,54,66,84,0
Schneeregen Schnee
Schneehöhe: 2 cm
Hüttisheim1,00,50,09,01,51,05,5
Schneeregen Schnee Graupel
Schneehöhe: Reste
Illerkirchberg0,70,40,011,30,52,29,0
Regen Schneeregen Schnee
Schneehöhe: reste
Inzigkofen0,02,00,16,20,12,07,0
Schneeregen Schnee
Schneehöhe: 1 cm
Isny1,80,60,624,020,83,65,8
Schnee
Schneehöhe: 9 cm
Kirchberg-1,0-15,53,02,07,2
Schnee
Schneehöhe: 14 cm
Kreuzthal-Steinberg-Alpe3,40,50,946,119,87,39,1
Schnee
Schneehöhe: 8Uhr18cm 19Uhr 42cm
Langenau1,00,50,08,50,53,08,5
Schneehöhe: angezuckert
Langenenslingen0,40,80,37,90,21,44,3
Regen
Schneehöhe: 1 cm
Leutkirch Unterer Auenweg 250,70,61,247,310,96,42,8
Schnee
Leutkirch Nachtigallenweg 282,51,02,030,08,08,04,5
Schnee
Schneehöhe: 4cm
Leutkirch-Adrazhofen2,01,03,536,012,06,56,5
Schnee
Schneehöhe: 6 cm
Mietingen Seerosenweg 10-------
Regen Schneeregen Schnee
Mietingen-Walpertshofen-------
Mittelbiberach-Reute1,61,81,013,23,54,05,2
Schneeregen Schnee
Schneehöhe: 0,5cm
Moosburg0,80,00,48,23,61,3-
Schneefall, vorwiegend am Vormittag. Nachmittags einzelne Schneeschaue [weiterlesen...]
Schnee
Schneehöhe: stark angezuckert
Münsingen-Rietheim0,81,41,027,07,23,411,4
Regen Schneeregen Schnee
Schneehöhe: 4 cm
Neresheim1,30,43,313,51,5-11,4
Schneeregen Schnee
Schneehöhe: 12 cm
Oberdischingen-------
Ochsenhausen0,00,40,37,22,01,31,8
Schnee
Schneehöhe: 2 durchbrochen
Öpfingen0,50,8-7,00,35,07,8
Schneeregen Schnee
Ostrach Uhlandweg-0,5-8,51,52,0-
Schnee
Pfaffenhofen-Kadeltshofen1,01,00,07,02,03,06,0
Nieselregen
Schneehöhe: Reste
Pfullendorf Am Schweizersbild -------
Rangendingen-3,0-8,0 k-4,03,0
Schneeregen
Ravensburg Bleicherstraße----54,6-4,4
Ravensburg-Schmalegg2,01,11,017,06,05,05,0
Schneehöhe: 2.0 cm
Ravensburg-Wernsreute0,80,0-15,06,20,69,0
Schneeregen Schnee
Ravensburg-Weststadt1,51,03,021,013,09,08,8
Schnee
Schneehöhe: 7 cm
Riedhausen1,60,40,66,81,41,44,0
Temp. -1,2°C / +0,6°C, Windböen N 20,9 km/h
Schneeregen Schnee
Schneehöhe: bedeckt
Riedlingen-Neufra-------
Schelklingen-Gundershofen1,00,5-33,0-7,015,0
Temp. zw. -2,4°C und +1,1°C. Ganzer Tag teils kräftiger Schneefall [weiterlesen...]
Schneehöhe: 2 cm
Schemmerberg1,0-0,59,12,0-5,0
Schwörstadt2,2--3,0-2,67,4
Nieselregen Schnee
Sigmaringendorf-4,2-6,30,21,15,1
Schnee
Tuttlingen-Möhringen Eßlinger Straße-1,0-8,00,21,04,2
Kräftiger Schneefall der für erhebliche Verkehrsbehinderungen sorgte [weiterlesen...]
Schneeregen Schnee
Schneehöhe: etwas angezuckert
Ulm    neu  -------
Ummendorf Tulpenweg1,21,0--26,513,56,0
Ummendorf Friedrich-Schiller-Str.-------
Uttenweiler-Ahlen0,6--11,22,02,7-
Schnee
Vöhringen (Schwarzwald)-2,01,55,02,0-1,5
Schneehöhe: 2cm
Waldburg-7,08,026,014,010,010,0
Schneehöhe: 8 cm
Wangen-Atzenberg-------
Schnee Bodennebel
Schneehöhe: Schneezuwachs
Wangen-Bergerhöhe2,10,70,845,721,87,19,1
Schnee
Schneehöhe: 4,0
Warthausen An der Schloßhalde -------
Warthausen Schwabenwiesen ------6,4
Warthausen-Barabein-----3,05,5
Schneehöhe: 4 cm
Weingarten Laurastraße1,50,51,022,513,04,24,0
+ 0,6 ° C um 5.00 Uhr, ca. 15 cm Schneedecke, Strassenglätte
Regen Nieselregen Schneeregen Schnee
Schneehöhe: Reste
Weingarten Hoyerstraße-------
Weingarten Marienstraße1,0-1,025,012,03,56,5
Regen Schneeregen Schnee
Schneehöhe: 2 cm
Wolfegg-Veesers-------
Wolpertswende0,00,00,40,00,02,210,3
Niederschlagsmesser zugeschneit
Schnee
Schneehöhe: 3 cm

Stillgelegte Niederschlagsstationen    -    derzeit 46 Stationen

StationLetzte Meldung02.01.03.01.04.01.05.01.06.01.07.01.08.01.Bemerkung 05.01.
Allmannsweiler02.09.2014-------
Aulendorf-Rugetsweiler 25.07.2013-------
Bad Saulgau Willi-Burth-Straße19.09.2011-------
Bad Saulgau Eichendorffweg28.03.2013-------
Bad Saulgau Seewattenstraße 12815.01.2014-------
Bad Saulgau-Lampertsweiler18.02.2015-------
Bad Schussenried-Steinhausen26.09.2012-------
Bad Waldsee-Michelwinnanden31.12.2014-------
Bad Waldsee-Osterhofen06.03.2015-------
Bad Waldsee-Steinach10.11.2013-------
Bad Wurzach-Haidgau07.10.2012-------
Bad Wurzach-Ziegelbach07.11.2014-------
Bergatreute13.02.2012-------
Betzenweiler05.01.2017-------
Burgrieden28.10.2013-------
Burgrieden-Rot18.09.2013-------
Eberhardzell Schillerstraße05.07.2010-------
Ehingen Am Elzengraben17.06.2016-------
Gammertingen16.01.2016-------
Griesingen06.10.2015-------
Günzburg31.12.2010-------
Hoßkirch05.01.2018-------
Ingoldingen-Grodt19.11.2016-------
Kisslegg02.05.2011-------
Krauchenwies-Hausen23.11.2013-------
Kressbronn10.03.2010-------
Leutkirch-Ottmannshofen27.07.2012-------
Leutkirch-Rotis08.05.2016-------
Leutkirch-Wuchzenhofen19.09.2016-------
Mietingen Hangweg 1530.12.2017-------
Mössingen-Bästenhardt21.07.2014-------
Ostrach Heiligenberger Straße19.08.2013-------
Pfullendorf Ringstraße 18.03.2012-------
Ravensburg Olgastraße30.10.2016-------
Seltmans09.04.2013-------
Stuttgart-Bad Cannstatt03.02.2013-------
Stuttgart-Möhringen23.04.2017-------
Stuttgart-Rohr07.11.2012-------
Talheim21.08.2016-------
Tannheim22.10.2017-------
Tettnang-Ramsbach26.03.2011-------
Tuttlingen-Möhringen Belchenstraße01.01.2015-------
Ummendorf Bergstraße23.10.2017-------
Vogt22.05.2015-------
Weingarten Bischof-Sproll-Straße30.06.2011-------
Wilhelmsdorf Riedhauser Straße 28.10.2012-------
Wilhelmsdorf Seefeld20.08.2013-------
Wurmlingen14.10.2016-------
Die Niederschlagswerte des gewählten Tages lassen sich durch Klicken auf das Datum sortieren.
Die Angaben sind in l/m².

Wetterbeobachtungen Legende:

  • Regen
  • Nieselregen
  • Schneeregen
  • Schnee
  • Graupel
  • Eiskörner
  • Hagel
  • Bodennebel
  • Gewitter
  • Nebelnässe
  • Schneegriesel

Grafische Darstellung der Tagesniederschläge vom 05.01.2019

< 04.01.201906.01.2019 >Monats- und Jahresniederschlag


 
wetterstationen
wetterstationen
- derzeit 73 Stationen
niederschlagsdatenbank
wetterstationen
- kartographische Darstellung
niederschlagsdatenbank
niederschlagsstationen
- derzeit 103 Stationen
niederschlagsdatenbank
niederschlagsstationen
- kartographische Darstellung
 
 
Fr. 7.30 Uhr - Sa. 7.30 Uhr (MEZ)
1.Waldburg2,0 l/m²
2.Ulm1,5 l/m²
3.Amstetten-Reutti0,8 l/m²
4.Langenau0,5 l/m²
5.Dornstadt-Tomerdingen0,5 l/m²
6.Eberhardzell
Lilienweg
0,1 l/m²
7.Eislingen0,1 l/m²
8.Langenenslingen0,1 l/m²
9.Kreuzthal-Steinberg-Alpe0,0 l/m²
10.Ehingen
Rosenstraße
0,0 l/m²
11.Füramoos0,0 l/m²
12.Ehingen
Schillerstraße
0,0 l/m²
13.Ravensburg-Schmalegg0,0 l/m²
 
Sa. 19.01.2019 - 7.30 Uhr (MEZ)
1.Kreuzthal-Steinberg-Alpe108 cm
2.Isny54 cm
3.Leutkirch-Adrazhofen45 cm
4.Waldburg40 cm
5.Bad Wurzach-Seibranz39 cm
6.Münsingen-Rietheim34 cm
7.Schelklingen-Gundershofen24 cm
8.Eberhardzell
Lilienweg
19 cm
9.Bad Waldsee-Haisterkirch19 cm
10.Amstetten-Reutti18 cm
11.Ochsenhausen15 cm
12.Horgenzell-Ringgenweiler9 cm
13.Tuttlingen-Möhringen
Eßlinger Straße
8 cm
14.Ravensburg-Schmalegg7 cm
15.Langenenslingen2 cm
16.Ehingen
Schillerstraße
1 cm
17.Ulmalles wieder weg
18.WolpertswendeReste
19.Langenauca 1cm
20.Moosburgstark angezuckert
21.AulendorfReste
22.Öpfingen"Reste"
23.Weingarten
Marienstraße
Reste
24.BalzheimReste
25.Riedhausenr
26.Pfaffenhofen-KadeltshofenReste
27.Bad Saulgau
Walserweg
Reste
28.Weingarten
Laurastraße
Reste
 
  treffpunkt & service
--- Anzeigen --------------------------------
zugriffe:
insgesamt: 40.646.499
aktueller monat: 319.580
heute: 12.492
momentan online: 62
 
 
monatshöchstwert: 653.625
vorheriger monat: 400.931
gestern: 9.684
tageshöchstwert: 45.129
 
wetterwarte süd
 
konradstraße 3
info@wetterwarte-sued.com
roland roth
 
88427 bad schussenried